^^
Paulen-Weather Station Historical Data
Daily Summary for January 09, 2020 Units:  Metric    English   Both
Daily Weekly Monthly Yearly Custom
  High: Low: Average:
Temperature: 6 °C 3 °C 4.8 °C
Dew Point: 5 °C 2 °C 2.9 °C
Humidity: 94% 78% 87%
Wind Speed: 25km/h 0km/h 10km/h
Wind Gust: 29km/h - -
Wind- - SSW
Pressure: 1012.84 hPa 1005.15 hPa -
Precipitation: 0.61 mm    
Historical Graphs
 
 
Tabular Data for January 09, 2020
Time Temperature Dew Point Pressure Wind Wind Speed Wind Gust Humidity Rainfall Rate (Hourly) solar
00:04 6 °C 3 °C 1011.82 hPa NW 23 km/h 29 km/h 79% 0 mm 0 W/m2
00:09 6 °C 3 °C 1011.85 hPa NW 18 km/h 29 km/h 79% 0 mm 0 W/m2
00:14 6 °C 3 °C 1011.99 hPa NW 20 km/h 23 km/h 79% 0 mm 0 W/m2
00:19 6 °C 3 °C 1012.06 hPa NW 16 km/h 23 km/h 79% 0 mm 0 W/m2
00:24 6 °C 3 °C 1012.09 hPa NW 19 km/h 19 km/h 79% 0 mm 0 W/m2
00:29 6 °C 3 °C 1012.16 hPa WNW 21 km/h 23 km/h 78% 0 mm 0 W/m2
00:34 6 °C 3 °C 1012.29 hPa NW 21 km/h 23 km/h 78% 0 mm 0 W/m2
00:39 6 °C 3 °C 1012.33 hPa NNW 25 km/h 26 km/h 78% 0 mm 0 W/m2
00:44 6 °C 3 °C 1012.36 hPa ESE 20 km/h 29 km/h 78% 0 mm 0 W/m2
00:49 6 °C 3 °C 1012.46 hPa NW 17 km/h 29 km/h 78% 0 mm 0 W/m2
00:54 6 °C 3 °C 1012.5 hPa NW 16 km/h 27 km/h 78% 0 mm 0 W/m2
00:59 6 °C 3 °C 1012.5 hPa NW 15 km/h 19 km/h 79% 0 mm 0 W/m2
01:04 6 °C 3 °C 1012.46 hPa NW 14 km/h 21 km/h 79% 0 mm 0 W/m2
01:09 6 °C 3 °C 1012.5 hPa NW 15 km/h 19 km/h 79% 0 mm 0 W/m2
01:14 6 °C 3 °C 1012.46 hPa NW 17 km/h 19 km/h 80% 0 mm 0 W/m2
01:19 6 °C 3 °C 1012.5 hPa NW 17 km/h 23 km/h 80% 0 mm 0 W/m2
01:24 6 °C 3 °C 1012.53 hPa NW 14 km/h 19 km/h 80% 0 mm 0 W/m2
01:29 6 °C 3 °C 1012.53 hPa NW 13 km/h 16 km/h 80% 0 mm 0 W/m2
01:34 6 °C 3 °C 1012.43 hPa NW 22 km/h 27 km/h 80% 0 mm 0 W/m2
01:39 6 °C 3 °C 1012.29 hPa NW 17 km/h 29 km/h 80% 0 mm 0 W/m2
01:44 6 °C 3 °C 1012.43 hPa NW 13 km/h 16 km/h 81% 0 mm 0 W/m2
01:49 6 °C 3 °C 1012.67 hPa NNW 11 km/h 14 km/h 81% 0 mm 0 W/m2
01:54 6 °C 3 °C 1012.67 hPa NW 11 km/h 14 km/h 81% 0 mm 0 W/m2
01:59 6 °C 3 °C 1012.84 hPa NW 13 km/h 19 km/h 81% 0 mm 0 W/m2
02:04 6 °C 3 °C 1012.84 hPa NW 15 km/h 19 km/h 81% 0 mm 0 W/m2
02:09 6 °C 3 °C 1012.53 hPa NW 18 km/h 14 km/h 81% 0 mm 0 W/m2
02:14 6 °C 3 °C 1012.43 hPa NW 18 km/h 24 km/h 81% 0 mm 0 W/m2
02:19 6 °C 3 °C 1012.43 hPa NW 17 km/h 21 km/h 80% 0 mm 0 W/m2
02:24 6 °C 3 °C 1012.43 hPa NW 13 km/h 19 km/h 81% 0 mm 0 W/m2
02:29 6 °C 3 °C 1012.5 hPa NW 13 km/h 19 km/h 81% 0 mm 0 W/m2
02:34 6 °C 3 °C 1012.56 hPa NW 13 km/h 16 km/h 81% 0 mm 0 W/m2
02:39 6 °C 3 °C 1012.6 hPa WNW 11 km/h 19 km/h 81% 0 mm 0 W/m2
02:44 6 °C 3 °C 1012.6 hPa WNW 10 km/h 16 km/h 81% 0 mm 0 W/m2
02:49 6 °C 3 °C 1012.5 hPa WNW 10 km/h 14 km/h 81% 0 mm 0 W/m2
02:54 6 °C 3 °C 1012.53 hPa WNW 7 km/h 14 km/h 81% 0 mm 0 W/m2
02:59 6 °C 3 °C 1012.6 hPa WNW 6 km/h 10 km/h 81% 0 mm 0 W/m2
03:04 6 °C 3 °C 1012.53 hPa W 6 km/h 8 km/h 82% 0 mm 0 W/m2
03:09 6 °C 3 °C 1012.53 hPa NW 12 km/h 13 km/h 82% 0 mm 0 W/m2
03:14 6 °C 3 °C 1012.53 hPa WNW 9 km/h 19 km/h 82% 0 mm 0 W/m2
03:19 6 °C 3 °C 1012.77 hPa WNW 10 km/h 11 km/h 82% 0 mm 0 W/m2
03:24 6 °C 3 °C 1012.8 hPa WNW 12 km/h 16 km/h 82% 0 mm 0 W/m2
03:29 6 °C 3 °C 1012.6 hPa WNW 11 km/h 16 km/h 82% 0 mm 0 W/m2
03:34 6 °C 3 °C 1012.56 hPa WNW 9 km/h 14 km/h 82% 0 mm 0 W/m2
03:39 6 °C 3 °C 1012.5 hPa W 10 km/h 16 km/h 82% 0 mm 0 W/m2
03:44 6 °C 3 °C 1012.5 hPa WNW 11 km/h 19 km/h 81% 0 mm 0 W/m2
03:49 6 °C 3 °C 1012.5 hPa NW 7 km/h 13 km/h 82% 0 mm 0 W/m2
03:54 6 °C 3 °C 1012.43 hPa NW 7 km/h 13 km/h 82% 0 mm 0 W/m2
03:59 5 °C 3 °C 1012.29 hPa NW 7 km/h 10 km/h 82% 0 mm 0 W/m2
04:04 5 °C 3 °C 1012.16 hPa WNW 5 km/h 10 km/h 82% 0 mm 0 W/m2
04:09 5 °C 3 °C 1012.39 hPa WNW 9 km/h 8 km/h 83% 0 mm 0 W/m2
04:14 5 °C 3 °C 1012.6 hPa WNW 11 km/h 13 km/h 84% 0 mm 0 W/m2
04:19 6 °C 3 °C 1012.56 hPa WNW 13 km/h 14 km/h 84% 0 mm 0 W/m2
04:24 6 °C 3 °C 1012.46 hPa W 13 km/h 16 km/h 84% 0 mm 0 W/m2
04:29 6 °C 3 °C 1012.39 hPa WNW 9 km/h 21 km/h 84% 0 mm 0 W/m2
04:34 6 °C 3 °C 1012.36 hPa WNW 9 km/h 10 km/h 84% 0 mm 0 W/m2
04:39 6 °C 3 °C 1012.36 hPa NW 9 km/h 14 km/h 85% 0 mm 0 W/m2
04:44 6 °C 3 °C 1012.5 hPa W 7 km/h 10 km/h 85% 0 mm 0 W/m2
04:49 5 °C 3 °C 1012.63 hPa WNW 6 km/h 10 km/h 84% 0 mm 0 W/m2
04:54 5 °C 3 °C 1012.67 hPa NW 5 km/h 8 km/h 85% 0 mm 0 W/m2
04:59 5 °C 3 °C 1012.73 hPa WNW 3 km/h 8 km/h 85% 0 mm 0 W/m2
05:04 5 °C 3 °C 1012.8 hPa WNW 4 km/h 6 km/h 85% 0 mm 0 W/m2
05:09 5 °C 3 °C 1012.77 hPa WNW 4 km/h 6 km/h 86% 0 mm 0 W/m2
05:14 5 °C 3 °C 1012.67 hPa NW 5 km/h 5 km/h 85% 0 mm 0 W/m2
05:19 5 °C 3 °C 1012.63 hPa WNW 6 km/h 6 km/h 85% 0 mm 0 W/m2
05:24 5 °C 3 °C 1012.6 hPa WNW 8 km/h 11 km/h 85% 0 mm 0 W/m2
05:29 5 °C 3 °C 1012.6 hPa WNW 8 km/h 11 km/h 85% 0 mm 0 W/m2
05:34 5 °C 3 °C 1012.67 hPa WNW 7 km/h 10 km/h 85% 0 mm 0 W/m2
05:39 5 °C 3 °C 1012.56 hPa W 5 km/h 8 km/h 85% 0 mm 0 W/m2
05:44 5 °C 3 °C 1012.36 hPa WNW 6 km/h 8 km/h 86% 0 mm 0 W/m2
05:49 5 °C 3 °C 1012.33 hPa WNW 8 km/h 10 km/h 86% 0 mm 0 W/m2
05:54 5 °C 3 °C 1012.33 hPa WNW 8 km/h 11 km/h 86% 0 mm 0 W/m2
05:59 5 °C 3 °C 1012.36 hPa WNW 7 km/h 11 km/h 85% 0 mm 0 W/m2
06:04 5 °C 3 °C 1012.53 hPa NW 5 km/h 8 km/h 85% 0 mm 0 W/m2
06:09 5 °C 3 °C 1012.7 hPa NW 3 km/h 10 km/h 85% 0 mm 0 W/m2
06:14 5 °C 3 °C 1012.7 hPa W 6 km/h 8 km/h 85% 0 mm 0 W/m2
06:19 5 °C 3 °C 1012.67 hPa WNW 5 km/h 8 km/h 85% 0 mm 0 W/m2
06:24 5 °C 3 °C 1012.53 hPa WNW 6 km/h 5 km/h 85% 0 mm 0 W/m2
06:29 5 °C 3 °C 1012.5 hPa WNW 4 km/h 5 km/h 86% 0 mm 0 W/m2
06:34 5 °C 3 °C 1012.36 hPa WNW 5 km/h 6 km/h 85% 0 mm 0 W/m2
06:39 5 °C 3 °C 1012.29 hPa WNW 2 km/h 6 km/h 85% 0 mm 0 W/m2
06:44 5 °C 3 °C 1012.09 hPa WNW 2 km/h 3 km/h 86% 0 mm 0 W/m2
06:49 5 °C 3 °C 1012.06 hPa WNW 2 km/h 3 km/h 86% 0 mm 0 W/m2
06:54 5 °C 3 °C 1011.95 hPa Calm   3 km/h 86% 0 mm 0 W/m2
06:59 5 °C 3 °C 1011.89 hPa Calm     86% 0 mm 0 W/m2
07:04 5 °C 3 °C 1011.85 hPa WNW 3 km/h 3 km/h 86% 0 mm 0 W/m2
07:09 5 °C 3 °C 1011.79 hPa WNW 6 km/h 5 km/h 85% 0 mm 0 W/m2
07:14 5 °C 3 °C 1011.72 hPa WNW 5 km/h 5 km/h 85% 0 mm 0 W/m2
07:19 5 °C 3 °C 1011.62 hPa WNW 5 km/h 5 km/h 85% 0 mm 0 W/m2
07:24 5 °C 3 °C 1011.72 hPa WNW 4 km/h 5 km/h 85% 0 mm 0 W/m2
07:29 5 °C 3 °C 1011.85 hPa WNW 3 km/h 5 km/h 85% 0 mm 0 W/m2
07:34 5 °C 3 °C 1011.79 hPa WNW 1 km/h 3 km/h 84% 0 mm 0 W/m2
07:39 5 °C 3 °C 1011.62 hPa WNW 1 km/h 2 km/h 84% 0 mm 0 W/m2
07:44 5 °C 3 °C 1011.45 hPa WNW 2 km/h 2 km/h 84% 0 mm 0 W/m2
07:49 5 °C 3 °C 1011.51 hPa Calm   2 km/h 84% 0 mm 0 W/m2
07:54 5 °C 3 °C 1011.51 hPa Calm     85% 0 mm 0 W/m2
07:59 5 °C 3 °C 1011.45 hPa Calm     85% 0 mm 0 W/m2
08:04 5 °C 3 °C 1011.48 hPa WNW 2 km/h 2 km/h 86% 0 mm 0 W/m2
08:09 5 °C 3 °C 1011.48 hPa WNW 4 km/h 3 km/h 86% 0 mm 0 W/m2
08:14 5 °C 3 °C 1011.45 hPa WNW 4 km/h 5 km/h 86% 0 mm 0 W/m2
08:19 4 °C 3 °C 1011.31 hPa WNW 2 km/h 3 km/h 87% 0 mm 0 W/m2
08:24 4 °C 2 °C 1011.11 hPa WNW 2 km/h 3 km/h 88% 0 mm 0 W/m2
08:29 4 °C 2 °C 1011.28 hPa NW 4 km/h 4 km/h 89% 0 mm 0 W/m2
08:34 4 °C 2 °C 1011.62 hPa NNW 5 km/h 5 km/h 90% 0 mm 0 W/m2
08:39 4 °C 2 °C 1011.58 hPa NNW 5 km/h 5 km/h 90% 0 mm 0 W/m2
08:44 4 °C 2 °C 1011.58 hPa NNW 4 km/h 5 km/h 91% 0 mm 0 W/m2
08:49 3 °C 2 °C 1011.55 hPa NNW 4 km/h 4 km/h 91% 0 mm 0 W/m2
08:54 3 °C 2 °C 1011.51 hPa NNW 6 km/h 5 km/h 91% 0 mm 0 W/m2
08:59 3 °C 2 °C 1011.48 hPa N 6 km/h 6 km/h 92% 0 mm 0 W/m2
09:04 3 °C 2 °C 1011.48 hPa N 6 km/h 6 km/h 92% 0 mm 0 W/m2
09:09 3 °C 2 °C 1011.45 hPa N 6 km/h 6 km/h 92% 0 mm 0 W/m2
09:14 3 °C 2 °C 1011.41 hPa N 6 km/h 6 km/h 92% 0 mm 0 W/m2
09:19 3 °C 2 °C 1011.34 hPa N 6 km/h 6 km/h 93% 0 mm 0 W/m2
09:24 3 °C 2 °C 1011.31 hPa NNE 6 km/h 6 km/h 93% 0 mm 0 W/m2
09:29 3 °C 2 °C 1011.11 hPa NE 6 km/h 6 km/h 93% 0 mm 7 W/m2
09:34 3 °C 2 °C 1011.21 hPa NE 6 km/h 6 km/h 93% 0 mm 7 W/m2
09:39 3 °C 2 °C 1011.24 hPa NE 7 km/h 8 km/h 93% 0 mm 7 W/m2
09:44 3 °C 2 °C 1011.11 hPa NE 6 km/h 8 km/h 93% 0 mm 11 W/m2
09:49 3 °C 2 °C 1011.04 hPa NE 7 km/h 8 km/h 93% 0 mm 12 W/m2
09:54 3 °C 2 °C 1010.97 hPa NE 7 km/h 8 km/h 93% 0 mm 11 W/m2
09:59 3 °C 2 °C 1010.5 hPa NE 6 km/h 8 km/h 93% 0 mm 11 W/m2
10:04 3 °C 2 °C 1010.46 hPa NE 5 km/h 6 km/h 93% 0 mm 11 W/m2
10:09 3 °C 2 °C 1010.46 hPa NNE 6 km/h 6 km/h 93% 0 mm 9 W/m2
10:14 3 °C 2 °C 1010.36 hPa NNE 6 km/h 6 km/h 93% 0 mm 7 W/m2
10:19 3 °C 2 °C 1010.23 hPa NE 6 km/h 6 km/h 94% 0 mm 5 W/m2
10:24 3 °C 2 °C 1010.19 hPa NNE 7 km/h 9 km/h 94% 0 mm 5 W/m2
10:29 3 °C 2 °C 1010.13 hPa NE 10 km/h 11 km/h 94% 0 mm 0 W/m2
10:34 3 °C 2 °C 1010.06 hPa NNE 7 km/h 11 km/h 94% 0 mm 5 W/m2
10:39 3 °C 2 °C 1009.96 hPa NNE 7 km/h 8 km/h 94% 0 mm 5 W/m2
10:44 3 °C 2 °C 1009.99 hPa NNE 7 km/h 8 km/h 94% 0 mm 9 W/m2
10:49 3 °C 2 °C 1010.06 hPa NNE 10 km/h 10 km/h 94% 0 mm 7 W/m2
10:54 3 °C 2 °C 1010.02 hPa NNE 8 km/h 11 km/h 94% 0 mm 11 W/m2
10:59 3 °C 2 °C 1009.99 hPa N 9 km/h 10 km/h 94% 0 mm 14 W/m2
11:04 3 °C 2 °C 1009.85 hPa NNE 8 km/h 10 km/h 94% 0 mm 16 W/m2
11:09 3 °C 2 °C 1009.75 hPa NNE 8 km/h 10 km/h 94% 0 mm 21 W/m2
11:14 3 °C 2 °C 1009.75 hPa NNE 8 km/h 10 km/h 94% 0 mm 21 W/m2
11:19 3 °C 2 °C 1009.65 hPa NNE 10 km/h 10 km/h 94% 0 mm 19 W/m2
11:24 3 °C 2 °C 1009.52 hPa N 10 km/h 11 km/h 94% 0 mm 19 W/m2
11:29 3 °C 2 °C 1009.52 hPa NNE 10 km/h 11 km/h 94% 0 mm 18 W/m2
11:34 3 °C 2 °C 1009.38 hPa NNE 10 km/h 13 km/h 94% 0 mm 19 W/m2
11:39 3 °C 2 °C 1009.35 hPa NNE 8 km/h 13 km/h 94% 0 mm 19 W/m2
11:44 3 °C 2 °C 1009.18 hPa NNE 8 km/h 8 km/h 94% 0 mm 23 W/m2
11:49 3 °C 2 °C 1009.11 hPa NNE 8 km/h 8 km/h 94% 0 mm 25 W/m2
11:54 3 °C 3 °C 1008.97 hPa NNE 8 km/h 10 km/h 94% 0 mm 25 W/m2
11:59 3 °C 2 °C 1008.84 hPa NNE 11 km/h 11 km/h 93% 0 mm 18 W/m2
12:04 3 °C 2 °C 1008.74 hPa NNE 9 km/h 11 km/h 93% 0 mm 18 W/m2
12:09 3 °C 2 °C 1008.6 hPa NNE 11 km/h 11 km/h 93% 0 mm 18 W/m2
12:14 3 °C 2 °C 1008.36 hPa NNE 11 km/h 13 km/h 93% 0 mm 18 W/m2
12:19 3 °C 2 °C 1008.3 hPa NNE 11 km/h 11 km/h 93% 0 mm 19 W/m2
12:24 3 °C 2 °C 1008.26 hPa NNE 10 km/h 13 km/h 94% 0 mm 25 W/m2
12:29 3 °C 3 °C 1008.26 hPa NNE 10 km/h 11 km/h 94% 0 mm 26 W/m2
12:34 4 °C 3 °C 1008.26 hPa NNE 9 km/h 11 km/h 94% 0 mm 26 W/m2
12:39 4 °C 3 °C 1008.23 hPa NNE 8 km/h 11 km/h 94% 0 mm 26 W/m2
12:44 4 °C 3 °C 1008.09 hPa NNE 12 km/h 11 km/h 94% 0 mm 30 W/m2
12:49 4 °C 3 °C 1007.82 hPa NNE 11 km/h 13 km/h 94% 0 mm 30 W/m2
12:54 4 °C 3 °C 1007.79 hPa NNE 9 km/h 11 km/h 94% 0 mm 26 W/m2
12:59 4 °C 3 °C 1007.72 hPa NNE 9 km/h 11 km/h 94% 0 mm 28 W/m2
13:04 4 °C 3 °C 1007.62 hPa NNE 10 km/h 10 km/h 94% 0 mm 32 W/m2
13:09 4 °C 3 °C 1007.45 hPa NNE 12 km/h 12 km/h 93% 0 mm 30 W/m2
13:14 4 °C 3 °C 1007.28 hPa N 11 km/h 14 km/h 93% 0 mm 28 W/m2
13:19 4 °C 3 °C 1007.21 hPa NNE 4 km/h 14 km/h 94% 0 mm 21 W/m2
13:24 4 °C 4 °C 1007.18 hPa ENE 10 km/h 9 km/h 94% 0 mm 28 W/m2
13:29 5 °C 4 °C 1007.11 hPa SE 7 km/h 11 km/h 94% 0 mm 28 W/m2
13:34 5 °C 4 °C 1007.08 hPa SSE 12 km/h 11 km/h 93% 0 mm 30 W/m2
13:39 6 °C 5 °C 1006.98 hPa SSE 15 km/h 14 km/h 90% 0 mm 28 W/m2
13:44 6 °C 5 °C 1006.87 hPa SSE 16 km/h 19 km/h 89% 0 mm 26 W/m2
13:49 6 °C 5 °C 1006.74 hPa ESE 16 km/h 19 km/h 89% 0 mm 26 W/m2
13:54 6 °C 5 °C 1006.6 hPa SE 17 km/h 19 km/h 89% 0 mm 25 W/m2
13:59 6 °C 5 °C 1006.4 hPa SE 18 km/h 19 km/h 88% 0 mm 23 W/m2
14:04 6 °C 3 °C 1006.27 hPa NE 19 km/h 19 km/h 83% 0 mm 21 W/m2
14:09 6 °C 4 °C 1006.06 hPa ESE 19 km/h 21 km/h 84% 0 mm 25 W/m2
14:14 6 °C 5 °C 1005.89 hPa ESE 21 km/h 23 km/h 88% 0 mm 23 W/m2
14:19 6 °C 4 °C 1005.76 hPa ESE 21 km/h 24 km/h 86% 0 mm 28 W/m2
14:24 6 °C 4 °C 1005.55 hPa NE 17 km/h 24 km/h 86% 0 mm 28 W/m2
14:29 6 °C 4 °C 1005.32 hPa NE 21 km/h 21 km/h 89% 0 mm 18 W/m2
14:34 5 °C 4 °C 1005.28 hPa NE 18 km/h 23 km/h 90% 0 mm 7 W/m2
14:39 5 °C 4 °C 1005.55 hPa ENE 17 km/h 21 km/h 91% 0 mm 7 W/m2
14:44 5 °C 4 °C 1005.72 hPa SSE 18 km/h 21 km/h 89% 0 mm 0 W/m2
14:49 5 °C 3 °C 1005.72 hPa SE 22 km/h 21 km/h 89% 0.2 mm 0 W/m2
14:54 5 °C 3 °C 1005.72 hPa SE 24 km/h 26 km/h 88% 0.2 mm 0 W/m2
14:59 5 °C 3 °C 1005.59 hPa NE 24 km/h 27 km/h 88% 0.41 mm 0 W/m2
15:04 5 °C 3 °C 1005.49 hPa NE 20 km/h 27 km/h 89% 0.41 mm 0 W/m2
15:09 5 °C 3 °C 1005.35 hPa ENE 22 km/h 24 km/h 90% 0.41 mm 0 W/m2
15:14 5 °C 3 °C 1005.28 hPa NE 21 km/h 26 km/h 90% 0.41 mm 0 W/m2
15:19 5 °C 3 °C 1005.15 hPa NE 25 km/h 29 km/h 90% 0.61 mm 0 W/m2
15:24 4 °C 3 °C 1005.25 hPa NE 18 km/h 29 km/h 90% 0.61 mm 0 W/m2
15:29 4 °C 3 °C 1005.32 hPa ENE 21 km/h 24 km/h 91% 0.61 mm 0 W/m2
Compliments of Weather Underground - 2 mb